Hourly Weather Mikolaiv

Today, 10 August, Monday

Time Temperature Precipitation Wind Pressure Humidity
00:00 +23°C° 0 mm 4 mps 758 mmHg 52%
01:00 +22°C° 0 mm 4 mps 758 mmHg 55%
02:00 +23°C° 0 mm 2 mps 758 mmHg 55%
03:00 +23°C° 0 mm 2 mps 758 mmHg 54%
04:00 +23°C° 0 mm 2 mps 758 mmHg 53%
05:00 +23°C° 0 mm 2 mps 758 mmHg 53%
06:00 +25°C° 0 mm 3 mps 758 mmHg 50%
07:00 +26°C° 0 mm 3 mps 758 mmHg 48%
08:00 +27°C° 0 mm 3 mps 758 mmHg 44%
09:00 +28°C° 0 mm 3 mps 758 mmHg 42%
10:00 +29°C° 0 mm 4 mps 758 mmHg 40%
11:00 +30°C° 0 mm 4 mps 758 mmHg 38%
12:00 +30°C° 0 mm 4 mps 758 mmHg 39%
13:00 +29°C° 0 mm 4 mps 758 mmHg 41%
14:00 +28°C° 0 mm 4 mps 758 mmHg 43%
15:00 +29°C° 0 mm 4 mps 758 mmHg 42%
16:00 +29°C° 0 mm 4 mps 758 mmHg 41%
17:00 +29°C° 0 mm 4 mps 758 mmHg 40%
18:00 +28°C° 0 mm 4 mps 758 mmHg 44%
19:00 +27°C° 0 mm 4 mps 758 mmHg 48%
20:00 +25°C° 0 mm 3 mps 758 mmHg 53%
21:00 +25°C° 0 mm 3 mps 758 mmHg 54%
22:00 +24°C° 0 mm 3 mps 758 mmHg 56%
23:00 +24°C° 0 mm 3 mps 758 mmHg 58%

Tomorrow, 11 August, Tuesday

Time Temperature Precipitation Wind Pressure Humidity
00:00 +22°C° 0 mm 3 mps 758 mmHg 60%
01:00 +22°C° 0 mm 3 mps 758 mmHg 62%
02:00 +21°C° 0 mm 3 mps 758 mmHg 64%
03:00 +21°C° 0 mm 3 mps 758 mmHg 66%
04:00 +21°C° 0 mm 2 mps 758 mmHg 68%
05:00 +20°C° 0 mm 2 mps 758 mmHg 70%
06:00 +23°C° 0 mm 2 mps 758 mmHg 63%
07:00 +25°C° 0 mm 3 mps 758 mmHg 56%
08:00 +27°C° 0 mm 3 mps 758 mmHg 50%
09:00 +29°C° 0 mm 3 mps 758 mmHg 45%
10:00 +30°C° 0 mm 3 mps 758 mmHg 40%
11:00 +33°C° 0 mm 3 mps 758 mmHg 35%
12:00 +33°C° 0 mm 3 mps 758 mmHg 35%
13:00 +33°C° 0 mm 3 mps 758 mmHg 34%
14:00 +33°C° 0 mm 3 mps 757 mmHg 34%
15:00 +33°C° 0 mm 3 mps 757 mmHg 34%
16:00 +33°C° 0 mm 3 mps 757 mmHg 34%
17:00 +33°C° 0 mm 3 mps 757 mmHg 35%
18:00 +30°C° 0.2 mm 3 mps 757 mmHg 41%
19:00 +28°C° 0.2 mm 2 mps 757 mmHg 48%
20:00 +26°C° 0.2 mm 2 mps 758 mmHg 55%
21:00 +25°C° 0.3 mm 2 mps 758 mmHg 57%
22:00 +25°C° 0.3 mm 1 mps 758 mmHg 60%
23:00 +24°C° 0.3 mm 1 mps 758 mmHg 63%

Day after tomorrow, 12 August, Wednesday

Time Temperature Precipitation Wind Pressure Humidity
00:00 +24°C° 0 mm 1 mps 758 mmHg 64%
01:00 +24°C° 0 mm 2 mps 757 mmHg 64%
02:00 +23°C° 0 mm 2 mps 757 mmHg 65%
03:00 +23°C° 0 mm 2 mps 757 mmHg 66%
04:00 +23°C° 0 mm 2 mps 757 mmHg 68%
05:00 +21°C° 0 mm 3 mps 757 mmHg 70%
06:00 +24°C° 0.1 mm 3 mps 757 mmHg 66%
07:00 +25°C° 0.1 mm 4 mps 757 mmHg 61%
08:00 +27°C° 0.1 mm 4 mps 758 mmHg 57%
09:00 +28°C° 0 mm 4 mps 758 mmHg 54%
10:00 +28°C° 0 mm 4 mps 758 mmHg 52%
11:00 +29°C° 0 mm 5 mps 758 mmHg 49%
12:00 +30°C° 0 mm 5 mps 758 mmHg 45%
13:00 +32°C° 0 mm 5 mps 758 mmHg 41%
14:00 +32°C° 0 mm 5 mps 757 mmHg 37%
15:00 +32°C° 0 mm 6 mps 758 mmHg 37%
16:00 +30°C° 0 mm 6 mps 758 mmHg 36%
17:00 +30°C° 0 mm 7 mps 758 mmHg 36%
18:00 +28°C° 0 mm 6 mps 758 mmHg 40%
19:00 +26°C° 0 mm 6 mps 759 mmHg 43%
20:00 +23°C° 0 mm 6 mps 759 mmHg 47%
21:00 +22°C° 0 mm 6 mps 759 mmHg 49%
22:00 +21°C° 0 mm 5 mps 760 mmHg 52%
23:00 +20°C° 0 mm 5 mps 760 mmHg 54%

13 August, Thursday

Time Temperature Precipitation Wind Pressure Humidity
00:00 +19°C° 0 mm 5 mps 760 mmHg 58%
01:00 +18°C° 0 mm 4 mps 760 mmHg 62%
02:00 +17°C° 0 mm 4 mps 761 mmHg 66%
03:00 +17°C° 0 mm 4 mps 761 mmHg 69%
04:00 +15°C° 0 mm 4 mps 761 mmHg 72%
05:00 +15°C° 0 mm 4 mps 761 mmHg 74%
06:00 +17°C° 0 mm 4 mps 761 mmHg 67%
07:00 +19°C° 0 mm 4 mps 761 mmHg 61%
08:00 +21°C° 0 mm 5 mps 761 mmHg 54%
09:00 +22°C° 0 mm 4 mps 761 mmHg 48%
10:00 +23°C° 0 mm 4 mps 761 mmHg 42%
11:00 +25°C° 0 mm 4 mps 761 mmHg 36%
12:00 +26°C° 0 mm 4 mps 761 mmHg 33%
13:00 +27°C° 0 mm 4 mps 760 mmHg 31%
14:00 +28°C° 0 mm 4 mps 760 mmHg 28%
15:00 +28°C° 0 mm 4 mps 760 mmHg 30%
16:00 +28°C° 0 mm 5 mps 760 mmHg 31%
17:00 +27°C° 0 mm 5 mps 759 mmHg 32%
18:00 +26°C° 0 mm 5 mps 760 mmHg 36%
19:00 +23°C° 0 mm 4 mps 760 mmHg 41%
20:00 +21°C° 0 mm 4 mps 760 mmHg 45%
21:00 +20°C° 0 mm 3 mps 760 mmHg 48%
22:00 +19°C° 0 mm 3 mps 761 mmHg 50%
23:00 +19°C° 0 mm 3 mps 761 mmHg 52%

14 August, Friday

Time Temperature Precipitation Wind Pressure Humidity
00:00 +18°C° 0 mm 2 mps 761 mmHg 54%
01:00 +18°C° 0 mm 2 mps 761 mmHg 56%
02:00 +17°C° 0 mm 2 mps 761 mmHg 58%
03:00 +17°C° 0 mm 2 mps 761 mmHg 62%
04:00 +16°C° 0 mm 3 mps 761 mmHg 66%
05:00 +14°C° 0 mm 3 mps 761 mmHg 70%
06:00 +17°C° 0 mm 3 mps 761 mmHg 63%
07:00 +19°C° 0 mm 4 mps 761 mmHg 56%
08:00 +20°C° 0 mm 4 mps 761 mmHg 49%
09:00 +22°C° 0 mm 4 mps 761 mmHg 45%
10:00 +23°C° 0 mm 4 mps 761 mmHg 40%
11:00 +25°C° 0 mm 4 mps 762 mmHg 35%
12:00 +26°C° 0 mm 4 mps 761 mmHg 33%
13:00 +26°C° 0 mm 4 mps 761 mmHg 32%
14:00 +27°C° 0 mm 4 mps 760 mmHg 30%
15:00 +27°C° 0 mm 4 mps 760 mmHg 30%
16:00 +27°C° 0 mm 4 mps 760 mmHg 30%
17:00 +27°C° 0 mm 4 mps 760 mmHg 30%
18:00 +25°C° 0 mm 4 mps 760 mmHg 33%
19:00 +22°C° 0 mm 4 mps 761 mmHg 36%
20:00 +20°C° 0 mm 3 mps 761 mmHg 39%
21:00 +20°C° 0 mm 3 mps 761 mmHg 40%
22:00 +19°C° 0 mm 3 mps 761 mmHg 41%
23:00 +18°C° 0 mm 3 mps 761 mmHg 42%

15 August, Saturday

Time Temperature Precipitation Wind Pressure Humidity
00:00 +17°C° 0 mm 3 mps 761 mmHg 44%
01:00 +17°C° 0 mm 3 mps 761 mmHg 46%
02:00 +16°C° 0 mm 3 mps 761 mmHg 47%
03:00 +16°C° 0 mm 3 mps 761 mmHg 51%
04:00 +15°C° 0 mm 2 mps 761 mmHg 54%
05:00 +15°C° 0 mm 2 mps 761 mmHg 57%
06:00 +17°C° 0 mm 2 mps 761 mmHg 52%
07:00 +19°C° 0 mm 3 mps 761 mmHg 47%
08:00 +21°C° 0 mm 3 mps 761 mmHg 42%
09:00 +24°C° 0 mm 3 mps 761 mmHg 38%
10:00 +25°C° 0 mm 3 mps 761 mmHg 33%
11:00 +26°C° 0 mm 3 mps 761 mmHg 28%
12:00 +27°C° 0 mm 2 mps 761 mmHg 27%
13:00 +28°C° 0 mm 2 mps 760 mmHg 25%
14:00 +28°C° 0 mm 2 mps 760 mmHg 23%
15:00 +28°C° 0 mm 2 mps 760 mmHg 23%
16:00 +28°C° 0 mm 2 mps 759 mmHg 23%
17:00 +28°C° 0 mm 2 mps 759 mmHg 23%
18:00 +26°C° 0 mm 2 mps 759 mmHg 29%
19:00 +24°C° 0 mm 2 mps 759 mmHg 35%
20:00 +21°C° 0 mm 2 mps 759 mmHg 41%
21:00 +21°C° 0 mm 2 mps 759 mmHg 45%
22:00 +20°C° 0 mm 2 mps 759 mmHg 48%
23:00 +20°C° 0 mm 1 mps 759 mmHg 51%
Show more